#timestamp,LO_Frequency,Hit,StdDev 
1620720015.2,286046998.9,Y
1620720035.0,286046998.6,P
1620720036.0,286046998.6,P
1620720055.8,286046999.5,N
1620720075.6,286046999.5,N
1620720095.5,286046998.9,N
1620720115.3,286046996.5,Y
1620720135.1,286046998.3,P
1620720155.9,286046998.3,P
1620720175.7,286046998.3,P
1620720195.6,286046998.8,Y
1620720215.4,286047000.5,P
1620720235.2,286047000.6,N
1620720255.1,286046998.5,N
1620720256.0,286046998.5,N
1620720275.8,286046998.2,N
1620720295.7,286046998.5,N
1620720315.5,286046998.4,N
1620720335.3,286046998.8,N
1620720355.2,286046999.2,N
1620720375.9,286046999.1,N
1620720395.7,286046999.4,N
1620720415.6,286046999.4,N
1620720435.4,286046996.5,Y
1620720455.3,286046999.3,P
1620720475.1,286046999.2,P
1620720476.0,286046999.2,P
1620720495.8,286046996.5,Y
1620720515.7,286046998.5,P
1620720535.5,286046998.7,P
1620720555.4,286046998.8,P
1620720575.2,286046998.7,Y
1620720595.0,286047001.0,P
1620720595.9,286047001.0,N
1620720615.8,286047000.7,N
1620720635.6,286047000.8,N
1620720655.4,286047000.4,N
1620720675.3,286047000.9,N
1620720695.1,286047000.8,N
1620720715.9,286047000.7,N
1620720735.7,286047001.0,N
1620720755.5,286046998.6,N
1620720775.4,286046998.2,N
1620720795.2,286046998.5,N
1620720815.0,286046998.5,N
1620720816.0,286046998.5,N
1620720835.8,286047001.2,N
1620720855.6,286047000.6,N
1620720875.5,286046998.2,N
1620720895.3,286046998.1,N
1620720915.1,286046998.3,N
1620720935.9,286046998.6,N
1620720955.7,286046998.1,N
1620720975.6,286047000.7,N
1620720995.4,286047000.1,N
1620721015.2,286047000.6,N
1620721035.1,286047000.4,N
1620721036.0,286047000.4,N
1620721055.8,286047000.1,N
1620721075.7,286047001.6,N
1620721095.5,286047004.0,Y
1620721115.3,286047004.2,P
1620721135.2,286047003.1,N
1620721155.0,286047005.9,P
1620721155.9,286047005.9,N
1620721175.8,286047005.5,N
1620721195.6,286047005.4,N
1620721215.4,286047005.1,N
1620721235.3,286047005.3,N
1620721255.1,286047005.4,N
1620721275.8,286047005.1,N
1620721295.7,286047007.6,Y
1620721315.5,286047001.7,P
1620721335.4,286047002.0,N
1620721355.2,286047001.7,N
1620721375.0,286047004.3,Y
1620721375.9,286047004.3,P
1620721395.8,286047000.5,N
1620721415.6,286047000.6,N
1620721435.5,286047000.0,N
1620721455.3,286047002.7,N
1620721475.1,286047002.4,N
1620721495.9,286047002.8,N
1620721515.7,286047002.7,N
1620721535.5,286047002.6,N
1620721555.4,286046999.8,N
1620721575.2,286047002.5,N
1620721595.1,286047002.3,N
1620721596.0,286047002.3,N
1620721615.8,286047002.6,N
1620721635.6,286047001.4,N
1620721655.5,286047004.0,Y
1620721675.3,286047002.8,P
1620721695.1,286046999.7,N
1620721715.9,286047002.3,N
1620721735.7,286047002.4,N
1620721755.6,286047002.3,N
1620721775.4,286047001.5,N
1620721795.2,286047001.6,N
1620721815.1,286047004.4,Y
1620721816.0,286047004.4,P
1620721835.8,286047002.3,N
1620721855.7,286047002.7,N
1620721875.5,286047002.3,N
1620721895.3,286047002.6,N
1620721915.2,286047001.4,N
1620721935.0,286047001.9,N
1620721935.9,286047001.9,N
1620721955.7,286047001.5,N
1620721975.6,286047001.5,N
1620721995.4,286047001.8,N
1620722015.3,286047001.8,N
1620722035.1,286047001.4,N
1620722036.0,286047001.4,N
1620722055.8,286047002.0,N
1620722075.7,286047001.7,N
1620722095.5,286047001.9,N
1620722115.4,286047004.4,Y
1620722135.2,286046999.8,P
1620722155.0,286047002.6,N
1620722155.9,286047002.6,N
1620722175.8,286046999.8,N
1620722195.6,286047002.7,N
1620722215.4,286047002.6,N
1620722235.3,286047001.5,N
1620722255.1,286047004.4,Y
1620722275.9,286046999.9,P
1620722295.7,286046999.8,N
1620722315.5,286046999.7,N
1620722335.4,286047002.7,Y
1620722355.2,286047002.8,P
1620722375.0,286047000.1,N
1620722375.9,286047000.1,N
1620722395.8,286047002.7,N
1620722415.6,286047002.5,N
1620722435.5,286047001.6,N
1620722455.3,286047001.3,N
1620722475.1,286047004.4,Y
1620722495.9,286047002.6,P
1620722515.7,286046999.7,N
1620722535.6,286047002.5,N
1620722555.4,286047002.5,N
1620722575.2,286047002.1,N
1620722595.1,286047002.8,N
1620722596.0,286047002.8,N
1620722615.8,286047001.8,N
1620722635.7,286047004.3,Y
1620722655.5,286046999.7,P
1620722675.3,286046999.9,N
1620722695.2,286047000.1,N
1620722715.0,286047002.7,N
1620722715.9,286047002.7,N
1620722735.7,286047002.8,N
1620722755.6,286047000.6,N
1620722775.4,286047000.5,N
1620722795.3,286047000.9,N
1620722815.1,286047000.0,N
1620722835.8,286047000.0,N
1620722855.7,286046999.8,N
1620722875.5,286047002.8,N
1620722895.4,286047002.4,N
1620722915.2,286047002.5,N
1620722935.0,286047002.0,N
1620722935.9,286047002.0,N
1620722955.8,286047004.4,Y
1620722975.6,286047000.2,P
1620722995.4,286046999.8,N
1620723015.3,286047000.1,N
1620723035.1,286047002.5,Y
1620723055.9,286047002.8,P
1620723075.7,286046999.7,N
1620723095.5,286047002.1,N
1620723115.4,286047002.6,N
1620723135.2,286047002.2,N
1620723155.1,286047002.2,N
1620723156.0,286047002.2,N
1620723175.8,286047002.3,N
1620723195.6,286047002.0,N
1620723215.5,286047001.8,N
1620723235.3,286047002.0,N
1620723255.2,286047002.0,N
1620723275.9,286047002.1,N
1620723295.7,286047002.1,N
1620723315.6,286047004.4,Y
1620723335.4,286046999.7,P
1620723355.2,286047000.3,N
1620723375.1,286047002.7,N
1620723376.0,286047002.7,N
1620723395.8,286047000.3,N
1620723415.7,286046999.9,N
1620723435.5,286047002.7,N
1620723455.3,286047002.0,N
1620723475.2,286047001.9,N
1620723495.0,286047002.4,N
1620723495.9,286047002.4,N
1620723515.8,286047002.0,N
1620723535.6,286047002.7,N
1620723555.4,286047001.9,N
1620723575.3,286047001.5,N
1620723595.1,286047002.5,N
